Location: Tierz
(42.1336°N, 0.3549°W)
Time: 15:01:33
(UTC+00:00)

Cosmos 1455 - Pass Details

Date: 29 October 2020
Orbit: 499 x 521 km, 82.5° (Epoch: 25 November)

Event Time Altitude Azimuth Distance (km) Brightness Sun altitude
Rises 17:50:38 0° 160° (SSE) 2,594 5.7 -10.2°
Reaches altitude 10° 17:52:57 10° 148° (SSE) 1,719 4.6 -10.6°
Maximum altitude 17:56:08 27° 90° (E) 1,020 3.1 -11.2°
Drops below altitude 10° 17:59:22 10° 32° (NNE) 1,743 4.5 -11.8°
Sets 18:01:44 0° 20° (NNE) 2,639 5.5 -12.2°
